RUK4371 LEZL-EGCC

Flight info

Callsign RUK4371
Flight time 2h 40m
Altitude 36000
Route HIJ M30 PARKA N858 SIE N865 DELOG DCT NOZHU DCT SHIRI DCT TOJAQ DCT ACCOP P16 AXCIS
Aircraft B738/M-SDE2E3FGHIRWXY/LB1

Departure

Time 2026-04-22 08:14
Airport Seville Airport (LEZL)

Arrival

Time 2026-04-22 10:54
Airport Manchester Airport (EGCC)
Time Latitude Longitude Altitude Speed Heading
2026-04-22 07:40 37.42277 -5.89882 92 ft 0 kts 315°
2026-04-22 08:05 37.42272 -5.89876 95 ft 3 kts 314°
2026-04-22 08:05 37.42258 -5.89857 93 ft 3 kts 307°
2026-04-22 08:05 37.42247 -5.89836 94 ft 3 kts 298°
2026-04-22 08:06 37.42239 -5.89813 92 ft 3 kts 279°
2026-04-22 08:06 37.42239 -5.89792 93 ft 3 kts 237°
2026-04-22 08:06 37.42242 -5.89786 92 ft 2 kts 225°
2026-04-22 08:10 37.42223 -5.89810 93 ft 8 kts 225°
2026-04-22 08:10 37.42163 -5.89884 93 ft 15 kts 225°
2026-04-22 08:10 37.42072 -5.89919 96 ft 15 kts 159°
2026-04-22 08:10 37.41984 -5.89914 95 ft 14 kts 245°
2026-04-22 08:11 37.41980 -5.90038 95 ft 14 kts 269°
2026-04-22 08:11 37.41978 -5.90180 94 ft 19 kts 269°
2026-04-22 08:11 37.41978 -5.90369 93 ft 24 kts 270°
2026-04-22 08:11 37.41978 -5.90601 92 ft 27 kts 269°
2026-04-22 08:12 37.41977 -5.90831 90 ft 26 kts 269°
2026-04-22 08:12 37.41928 -5.91030 89 ft 24 kts 239°
2026-04-22 08:12 37.41830 -5.91185 89 ft 23 kts 184°
2026-04-22 08:12 37.41789 -5.91012 91 ft 27 kts 89°
2026-04-22 08:13 37.41790 -5.90671 93 ft 64 kts 89°
2026-04-22 08:13 37.41793 -5.89840 98 ft 124 kts 90°
2026-04-22 08:13 37.41799 -5.88549 130 ft 166 kts 90°
2026-04-22 08:13 37.41778 -5.87063 558 ft 182 kts 91°
2026-04-22 08:14 37.41796 -5.85433 1056 ft 195 kts 90°
2026-04-22 08:14 37.41770 -5.83644 1460 ft 210 kts 92°
2026-04-22 08:14 37.41722 -5.81780 2023 ft 215 kts 88°
2026-04-22 08:14 37.42000 -5.79904 2756 ft 221 kts 75°
2026-04-22 08:15 37.42394 -5.78007 3475 ft 231 kts 76°
2026-04-22 08:15 37.43120 -5.76101 3815 ft 259 kts 46°
2026-04-22 08:15 37.44669 -5.74847 4425 ft 272 kts 25°
2026-04-22 08:15 37.46413 -5.73824 5232 ft 282 kts 24°
2026-04-22 08:16 37.48245 -5.72769 5875 ft 297 kts 24°
2026-04-22 08:16 37.50158 -5.71662 6537 ft 309 kts 24°
2026-04-22 08:16 37.52134 -5.70505 7266 ft 314 kts 25°
2026-04-22 08:16 37.54111 -5.69335 8139 ft 316 kts 24°
2026-04-22 08:17 37.56112 -5.68142 8922 ft 321 kts 24°
2026-04-22 08:17 37.58150 -5.66920 9700 ft 327 kts 24°
2026-04-22 08:17 37.60236 -5.65664 10335 ft 338 kts 24°
2026-04-22 08:17 37.62421 -5.64346 10609 ft 360 kts 24°
2026-04-22 08:18 37.64726 -5.62952 11119 ft 371 kts 24°
2026-04-22 08:18 37.67067 -5.61533 11881 ft 374 kts 24°
2026-04-22 08:18 37.69408 -5.60110 12748 ft 374 kts 24°
2026-04-22 08:18 37.71754 -5.58683 13576 ft 375 kts 24°
2026-04-22 08:19 37.74111 -5.57248 14330 ft 377 kts 24°
2026-04-22 08:19 37.76486 -5.55801 14984 ft 380 kts 24°
2026-04-22 08:19 37.78876 -5.54345 15632 ft 384 kts 24°
2026-04-22 08:19 37.81290 -5.52873 16323 ft 386 kts 24°
2026-04-22 08:20 37.83717 -5.51392 16995 ft 389 kts 23°
2026-04-22 08:20 37.86167 -5.49897 17607 ft 393 kts 23°
2026-04-22 08:20 37.88642 -5.48384 18229 ft 397 kts 23°
2026-04-22 08:20 37.91139 -5.46857 18773 ft 400 kts 23°
2026-04-22 08:21 37.93652 -5.45318 19327 ft 402 kts 23°
2026-04-22 08:21 37.96167 -5.43777 19871 ft 404 kts 22°
2026-04-22 08:21 37.98713 -5.42217 20383 ft 407 kts 22°
2026-04-22 08:21 38.01265 -5.40651 20907 ft 408 kts 22°
2026-04-22 08:22 38.03831 -5.39075 21389 ft 411 kts 22°
2026-04-22 08:22 38.06411 -5.37490 21860 ft 414 kts 22°
2026-04-22 08:22 38.09011 -5.35891 22316 ft 417 kts 22°
2026-04-22 08:22 38.11598 -5.34300 22755 ft 420 kts 22°
2026-04-22 08:23 38.14273 -5.32652 23193 ft 422 kts 22°
2026-04-22 08:23 38.16881 -5.31043 23658 ft 424 kts 22°
2026-04-22 08:23 38.19536 -5.29405 24030 ft 425 kts 22°
2026-04-22 08:23 38.22235 -5.27737 24394 ft 427 kts 22°
2026-04-22 08:24 38.24881 -5.26102 24739 ft 429 kts 22°
2026-04-22 08:24 38.27568 -5.24439 25110 ft 430 kts 22°
2026-04-22 08:24 38.30259 -5.22773 25453 ft 431 kts 22°
2026-04-22 08:24 38.32963 -5.21097 25797 ft 433 kts 22°
2026-04-22 08:25 38.35677 -5.19413 26136 ft 435 kts 22°
2026-04-22 08:25 38.38401 -5.17722 26476 ft 436 kts 22°
2026-04-22 08:25 38.41129 -5.16026 26809 ft 438 kts 22°
2026-04-22 08:25 38.43871 -5.14320 27143 ft 439 kts 22°
2026-04-22 08:26 38.46626 -5.12607 27472 ft 441 kts 22°
2026-04-22 08:26 38.49401 -5.10935 27775 ft 441 kts 17°
2026-04-22 08:26 38.52361 -5.10109 28012 ft 433 kts 358°
2026-04-22 08:26 38.55347 -5.10285 28367 ft 429 kts 351°
2026-04-22 08:27 38.58324 -5.10627 28668 ft 431 kts 351°
2026-04-22 08:27 38.61322 -5.10988 28930 ft 433 kts 351°
2026-04-22 08:27 38.64335 -5.11339 29200 ft 436 kts 351°
2026-04-22 08:27 38.67352 -5.11672 29488 ft 437 kts 351°
2026-04-22 08:28 38.70393 -5.11993 29803 ft 439 kts 352°
2026-04-22 08:28 38.73443 -5.12305 30083 ft 440 kts 352°
2026-04-22 08:28 38.76503 -5.12615 30330 ft 442 kts 352°
2026-04-22 08:28 38.79571 -5.12925 30582 ft 443 kts 352°
2026-04-22 08:29 38.82644 -5.13236 30832 ft 444 kts 352°
2026-04-22 08:29 38.85725 -5.13547 31164 ft 443 kts 352°
2026-04-22 08:29 38.88784 -5.13857 31536 ft 440 kts 352°
2026-04-22 08:29 38.91836 -5.14167 31886 ft 439 kts 352°
2026-04-22 08:30 38.94878 -5.14479 32190 ft 439 kts 352°
2026-04-22 08:30 38.97939 -5.14509 32432 ft 444 kts
2026-04-22 08:30 39.00967 -5.13676 32706 ft 448 kts 15°
2026-04-22 08:30 39.03829 -5.12050 33019 ft 453 kts 28°
2026-04-22 08:31 39.06496 -5.09892 33312 ft 453 kts 30°
2026-04-22 08:31 39.09128 -5.07667 33564 ft 453 kts 30°
2026-04-22 08:31 39.14380 -5.03189 34085 ft 452 kts 30°
2026-04-22 08:32 39.16972 -5.01000 34332 ft 451 kts 30°
2026-04-22 08:32 39.19602 -4.98795 34542 ft 450 kts 30°
2026-04-22 08:32 39.22229 -4.96603 34730 ft 450 kts 30°
2026-04-22 08:32 39.24861 -4.94411 34952 ft 449 kts 29°
2026-04-22 08:33 39.27516 -4.92201 35253 ft 446 kts 29°
2026-04-22 08:33 39.30083 -4.90064 35453 ft 446 kts 29°
2026-04-22 08:33 39.32693 -4.87889 35589 ft 447 kts 29°
2026-04-22 08:33 39.35309 -4.85707 35741 ft 447 kts 29°
2026-04-22 08:34 39.37955 -4.83498 35928 ft 446 kts 29°
2026-04-22 08:34 39.43147 -4.79156 36003 ft 449 kts 29°
2026-04-22 08:35 39.48373 -4.74773 36018 ft 446 kts 29°
2026-04-22 08:35 39.53564 -4.70413 36016 ft 443 kts 29°
2026-04-22 08:36 39.58723 -4.66072 35996 ft 441 kts 29°
2026-04-22 08:36 39.63859 -4.61744 36009 ft 440 kts 29°
2026-04-22 08:37 39.68989 -4.57414 36010 ft 440 kts 29°
2026-04-22 08:37 39.74119 -4.53074 36018 ft 441 kts 29°
2026-04-22 08:38 39.79262 -4.48717 36009 ft 442 kts 29°
2026-04-22 08:38 39.84409 -4.44347 36005 ft 442 kts 29°
2026-04-22 08:39 39.89565 -4.39959 35995 ft 443 kts 29°
2026-04-22 08:39 39.94727 -4.35561 36007 ft 444 kts 29°
2026-04-22 08:40 40.00055 -4.31561 36003 ft 440 kts 21°
2026-04-22 08:40 40.05589 -4.28266 35993 ft 440 kts 20°
2026-04-22 08:41 40.11163 -4.24989 36000 ft 440 kts 20°
2026-04-22 08:41 40.16759 -4.21624 35996 ft 440 kts 21°
2026-04-22 08:42 40.22263 -4.18267 36003 ft 439 kts 21°
2026-04-22 08:42 40.27793 -4.14877 36001 ft 438 kts 21°
2026-04-22 08:43 40.33316 -4.11486 35998 ft 437 kts 21°
2026-04-22 08:43 40.38818 -4.08104 36000 ft 437 kts 21°
2026-04-22 08:44 40.44313 -4.04720 36010 ft 436 kts 21°
2026-04-22 08:44 40.49799 -4.01337 35999 ft 435 kts 21°
2026-04-22 08:45 40.55267 -3.97957 36015 ft 434 kts 21°
2026-04-22 08:45 40.60729 -3.94576 36024 ft 434 kts 21°
2026-04-22 08:46 40.66190 -3.91189 36026 ft 434 kts 21°
2026-04-22 08:46 40.71661 -3.87789 36029 ft 435 kts 21°
2026-04-22 08:47 40.77126 -3.84388 36035 ft 435 kts 21°
2026-04-22 08:47 40.82615 -3.80964 36000 ft 436 kts 21°
2026-04-22 08:48 40.88100 -3.77536 36005 ft 437 kts 21°
2026-04-22 08:48 40.93596 -3.74095 35997 ft 437 kts 21°
2026-04-22 08:49 40.99088 -3.70649 35998 ft 437 kts 21°
2026-04-22 08:49 41.04591 -3.67190 36004 ft 437 kts 22°
2026-04-22 08:50 41.10090 -3.63728 36004 ft 438 kts 22°
2026-04-22 08:50 41.14768 -3.61259 35993 ft 432 kts
2026-04-22 08:51 41.20655 -3.60491 36015 ft 424 kts 355°
2026-04-22 08:51 41.26560 -3.60728 36008 ft 424 kts 354°
2026-04-22 08:52 41.32472 -3.60939 36010 ft 425 kts 355°
2026-04-22 08:52 41.38398 -3.61100 35993 ft 426 kts 355°
2026-04-22 08:53 41.44331 -3.61248 35991 ft 426 kts 355°
2026-04-22 08:53 41.50254 -3.61399 35999 ft 426 kts 355°
2026-04-22 08:54 41.56182 -3.61448 35992 ft 426 kts 356°
2026-04-22 08:54 41.62073 -3.61425 35991 ft 426 kts 356°
2026-04-22 08:55 41.68048 -3.61410 35997 ft 426 kts 356°
2026-04-22 08:55 41.73972 -3.61406 36005 ft 426 kts 356°
2026-04-22 08:56 41.79858 -3.61406 35995 ft 426 kts 356°
2026-04-22 08:56 41.85782 -3.61406 35998 ft 425 kts 356°
2026-04-22 08:57 41.91696 -3.61405 35988 ft 425 kts 356°
2026-04-22 08:57 41.97617 -3.61403 35991 ft 425 kts 356°
2026-04-22 08:58 42.03533 -3.61417 35991 ft 425 kts 354°
2026-04-22 08:58 42.09433 -3.61766 35992 ft 424 kts 353°
2026-04-22 08:59 42.15338 -3.62204 35989 ft 425 kts 353°
2026-04-22 08:59 42.21248 -3.62595 35999 ft 426 kts 353°
2026-04-22 09:00 42.27170 -3.62964 35996 ft 426 kts 353°
2026-04-22 09:00 42.33100 -3.63333 35998 ft 427 kts 353°
2026-04-22 09:01 42.39004 -3.63965 36009 ft 424 kts 348°
2026-04-22 09:01 42.44822 -3.65202 35999 ft 423 kts 347°
2026-04-22 09:02 42.50639 -3.66458 35990 ft 423 kts 347°
2026-04-22 09:02 42.56460 -3.67646 35992 ft 422 kts 347°
2026-04-22 09:03 42.62270 -3.68809 35977 ft 422 kts 348°
2026-04-22 09:03 42.68028 -3.69967 35972 ft 421 kts 347°
2026-04-22 09:04 42.73838 -3.71020 35966 ft 421 kts 349°
2026-04-22 09:04 42.79652 -3.71988 35966 ft 421 kts 349°
2026-04-22 09:05 42.85464 -3.72962 35964 ft 421 kts 349°
2026-04-22 09:05 42.91271 -3.73949 35960 ft 420 kts 349°
2026-04-22 09:06 42.97073 -3.74943 35972 ft 420 kts 349°
2026-04-22 09:06 43.02874 -3.75941 35968 ft 420 kts 349°
2026-04-22 09:07 43.08676 -3.76941 35958 ft 421 kts 349°
2026-04-22 09:07 43.14491 -3.77944 35966 ft 422 kts 349°
2026-04-22 09:08 43.20311 -3.78951 35973 ft 422 kts 349°
2026-04-22 09:08 43.26137 -3.79960 35980 ft 423 kts 349°
2026-04-22 09:09 43.31983 -3.80975 35975 ft 423 kts 349°
2026-04-22 09:09 43.37834 -3.81992 35978 ft 424 kts 348°
2026-04-22 09:10 43.43701 -3.83014 35966 ft 425 kts 348°
2026-04-22 09:10 43.49573 -3.84040 35976 ft 425 kts 348°
2026-04-22 09:11 43.55445 -3.85067 35977 ft 426 kts 348°
2026-04-22 09:11 43.61323 -3.86097 35973 ft 426 kts 348°
2026-04-22 09:12 43.67205 -3.87130 35979 ft 426 kts 348°
2026-04-22 09:12 43.73097 -3.88166 35970 ft 426 kts 348°
2026-04-22 09:13 43.78981 -3.89203 35971 ft 426 kts 348°
2026-04-22 09:13 43.84871 -3.90244 35968 ft 426 kts 348°
2026-04-22 09:14 43.90756 -3.91286 35962 ft 426 kts 348°
2026-04-22 09:14 43.96637 -3.92328 35967 ft 426 kts 348°
2026-04-22 09:15 44.02522 -3.93374 35951 ft 426 kts 348°
2026-04-22 09:15 44.08409 -3.94422 35947 ft 426 kts 348°
2026-04-22 09:16 44.14250 -3.95464 35946 ft 426 kts 348°
2026-04-22 09:16 44.20132 -3.96514 35944 ft 426 kts 348°
2026-04-22 09:17 44.26019 -3.97567 35944 ft 426 kts 348°
2026-04-22 09:17 44.31901 -3.98622 35927 ft 427 kts 348°
2026-04-22 09:18 44.37870 -3.98842 35940 ft 431 kts 356°
2026-04-22 09:18 44.43883 -3.98528 35933 ft 432 kts 357°
2026-04-22 09:19 44.49896 -3.98210 35927 ft 433 kts 357°
2026-04-22 09:19 44.55913 -3.97946 35933 ft 433 kts 356°
2026-04-22 09:20 44.61945 -3.97710 35922 ft 434 kts 356°
2026-04-22 09:20 44.67980 -3.97482 35914 ft 434 kts 356°
2026-04-22 09:21 44.74026 -3.97253 35910 ft 435 kts 356°
2026-04-22 09:21 44.80076 -3.97022 35909 ft 435 kts 356°
2026-04-22 09:22 44.86132 -3.96790 35907 ft 435 kts 356°
2026-04-22 09:22 44.92182 -3.96558 35908 ft 435 kts 356°
2026-04-22 09:23 44.98241 -3.96325 35907 ft 436 kts 356°
2026-04-22 09:23 45.04302 -3.96091 35909 ft 435 kts 356°
2026-04-22 09:24 45.10356 -3.95858 35903 ft 435 kts 356°
2026-04-22 09:24 45.16410 -3.95623 35906 ft 435 kts 356°
2026-04-22 09:25 45.22430 -3.95390 35909 ft 435 kts 356°
2026-04-22 09:25 45.28480 -3.95155 35907 ft 435 kts 356°
2026-04-22 09:26 45.34576 -3.94917 35910 ft 435 kts 356°
2026-04-22 09:26 45.40586 -3.94683 35906 ft 435 kts 356°
2026-04-22 09:27 45.46642 -3.94446 35904 ft 435 kts 356°
2026-04-22 09:27 45.52697 -3.94209 35916 ft 435 kts 356°
2026-04-22 09:28 45.58759 -3.93971 35909 ft 436 kts 356°
2026-04-22 09:28 45.64828 -3.93732 35909 ft 436 kts 356°
2026-04-22 09:29 45.70900 -3.93493 35915 ft 437 kts 356°
2026-04-22 09:29 45.76975 -3.93252 35915 ft 437 kts 356°
2026-04-22 09:30 45.83049 -3.93012 35910 ft 437 kts 356°
2026-04-22 09:30 45.89126 -3.92770 35914 ft 437 kts 356°
2026-04-22 09:31 45.95197 -3.92528 35920 ft 436 kts 356°
2026-04-22 09:31 46.01266 -3.92286 35918 ft 436 kts 356°
2026-04-22 09:32 46.07329 -3.92044 35921 ft 435 kts 356°
2026-04-22 09:32 46.13384 -3.91801 35927 ft 435 kts 356°
2026-04-22 09:33 46.19433 -3.91558 35930 ft 435 kts 356°
2026-04-22 09:33 46.25438 -3.91317 35930 ft 435 kts 356°
2026-04-22 09:34 46.31486 -3.91073 35946 ft 435 kts 356°
2026-04-22 09:34 46.37530 -3.90829 35938 ft 435 kts 356°
2026-04-22 09:35 46.46611 -3.90461 35944 ft 435 kts 356°
2026-04-22 09:35 46.52666 -3.90215 35955 ft 436 kts 356°
2026-04-22 09:36 46.58728 -3.89969 35954 ft 436 kts 356°
2026-04-22 09:36 46.64793 -3.89721 35960 ft 437 kts 356°
2026-04-22 09:37 46.70876 -3.89472 35957 ft 437 kts 356°
2026-04-22 09:37 46.76951 -3.89223 35963 ft 437 kts 356°
2026-04-22 09:38 46.83037 -3.88973 35962 ft 437 kts 356°
2026-04-22 09:38 46.89114 -3.88722 35963 ft 437 kts 356°
2026-04-22 09:39 46.94170 -3.88514 35975 ft 437 kts 356°
2026-04-22 09:39 47.00253 -3.88262 35975 ft 437 kts 356°
2026-04-22 09:40 47.06332 -3.88010 35975 ft 437 kts 356°
2026-04-22 09:40 47.12409 -3.87757 35989 ft 436 kts 356°
2026-04-22 09:41 47.18476 -3.87505 35983 ft 436 kts 356°
2026-04-22 09:41 47.24547 -3.87251 35985 ft 436 kts 356°
2026-04-22 09:42 47.30607 -3.86998 35985 ft 436 kts 356°
2026-04-22 09:42 47.36669 -3.86744 35980 ft 436 kts 356°
2026-04-22 09:43 47.42735 -3.86489 35993 ft 436 kts 356°
2026-04-22 09:43 47.48802 -3.86233 35986 ft 436 kts 356°
2026-04-22 09:44 47.54876 -3.85977 35997 ft 437 kts 356°
2026-04-22 09:44 47.60961 -3.85720 35992 ft 438 kts 357°
2026-04-22 09:45 47.67052 -3.85462 35995 ft 438 kts 357°
2026-04-22 09:45 47.73157 -3.85202 35989 ft 439 kts 357°
2026-04-22 09:46 47.79262 -3.84941 35995 ft 439 kts 357°
2026-04-22 09:46 47.85368 -3.84680 35998 ft 439 kts 357°
2026-04-22 09:47 47.91481 -3.84419 35993 ft 439 kts 357°
2026-04-22 09:47 47.97592 -3.84156 36000 ft 439 kts 357°
2026-04-22 09:48 48.03658 -3.83895 35998 ft 439 kts 357°
2026-04-22 09:48 48.09755 -3.83632 36007 ft 438 kts 357°
2026-04-22 09:49 48.15846 -3.83368 36015 ft 437 kts 357°
2026-04-22 09:49 48.21918 -3.83105 36014 ft 436 kts 357°
2026-04-22 09:50 48.27984 -3.82842 36021 ft 436 kts 357°
2026-04-22 09:50 48.34037 -3.82578 36028 ft 435 kts 357°
2026-04-22 09:51 48.40079 -3.82314 36036 ft 434 kts 357°
2026-04-22 09:51 48.46117 -3.82050 36038 ft 434 kts 357°
2026-04-22 09:52 48.52152 -3.81786 36032 ft 435 kts 357°
2026-04-22 09:52 48.58212 -3.81520 36020 ft 436 kts 358°
2026-04-22 09:53 48.64280 -3.81253 36030 ft 436 kts 358°
2026-04-22 09:53 48.70352 -3.80984 36028 ft 437 kts 358°
2026-04-22 09:54 48.76433 -3.80715 36034 ft 437 kts 358°
2026-04-22 09:54 48.82513 -3.80445 36050 ft 437 kts 358°
2026-04-22 09:55 48.88595 -3.80174 36061 ft 437 kts 358°
2026-04-22 09:55 48.94678 -3.79903 36073 ft 438 kts 358°
2026-04-22 09:56 49.00761 -3.79631 36078 ft 438 kts 358°
2026-04-22 09:56 49.06859 -3.79359 36073 ft 438 kts 357°
2026-04-22 09:57 49.12949 -3.79084 36089 ft 437 kts 358°
2026-04-22 09:57 49.19029 -3.78806 36085 ft 437 kts 357°
2026-04-22 09:58 49.25116 -3.78535 36101 ft 437 kts 356°
2026-04-22 09:58 49.31198 -3.78259 36103 ft 437 kts 356°
2026-04-22 09:59 49.37273 -3.77983 36098 ft 437 kts 356°
2026-04-22 09:59 49.43353 -3.77705 36100 ft 437 kts 356°
2026-04-22 10:00 49.49431 -3.77425 36119 ft 437 kts 356°
2026-04-22 10:00 49.55467 -3.77150 36119 ft 437 kts 357°
2026-04-22 10:01 49.61547 -3.76868 36117 ft 437 kts 357°
2026-04-22 10:01 49.67630 -3.76590 36120 ft 437 kts 356°
2026-04-22 10:02 49.73719 -3.76146 36130 ft 439 kts
2026-04-22 10:02 49.79803 -3.75373 36128 ft 439 kts
2026-04-22 10:03 49.85882 -3.74590 36146 ft 438 kts
2026-04-22 10:03 49.91947 -3.73848 36158 ft 437 kts 360°
2026-04-22 10:04 49.98016 -3.73118 36155 ft 437 kts 359°
2026-04-22 10:04 50.04073 -3.72399 36153 ft 436 kts
2026-04-22 10:05 50.10123 -3.71677 36165 ft 435 kts 358°
2026-04-22 10:05 50.16161 -3.70948 36166 ft 435 kts
2026-04-22 10:06 50.22197 -3.70220 36168 ft 435 kts 359°
2026-04-22 10:06 50.28223 -3.69490 36172 ft 435 kts
2026-04-22 10:07 50.34257 -3.68759 36188 ft 434 kts 359°
2026-04-22 10:07 50.40279 -3.68028 36189 ft 434 kts
2026-04-22 10:08 50.46310 -3.67038 36187 ft 436 kts
2026-04-22 10:08 50.52288 -3.65856 36184 ft 436 kts
2026-04-22 10:09 50.58302 -3.64704 36186 ft 435 kts
2026-04-22 10:09 50.64304 -3.63563 36214 ft 434 kts
2026-04-22 10:10 50.70301 -3.62416 36208 ft 434 kts
2026-04-22 10:10 50.76282 -3.61269 36206 ft 432 kts
2026-04-22 10:11 50.82247 -3.60124 36221 ft 431 kts
2026-04-22 10:11 50.88195 -3.58976 36202 ft 430 kts
2026-04-22 10:12 50.94120 -3.57833 36213 ft 428 kts
2026-04-22 10:12 51.00030 -3.56691 36213 ft 427 kts
2026-04-22 10:13 51.05919 -3.55549 36223 ft 426 kts
2026-04-22 10:13 51.11804 -3.54401 36222 ft 427 kts
2026-04-22 10:14 51.17701 -3.53245 36207 ft 423 kts
2026-04-22 10:14 51.20567 -3.52681 36196 ft 408 kts
2026-04-22 10:14 51.23283 -3.52151 36209 ft 407 kts
2026-04-22 10:15 51.28952 -3.51041 36211 ft 414 kts
2026-04-22 10:15 51.34708 -3.49919 36227 ft 420 kts
2026-04-22 10:16 51.40548 -3.48776 36248 ft 426 kts
2026-04-22 10:16 51.46474 -3.47602 36239 ft 430 kts
2026-04-22 10:17 51.52432 -3.46416 36253 ft 433 kts
2026-04-22 10:17 51.58340 -3.45230 36109 ft 421 kts
2026-04-22 10:18 51.61224 -3.44656 35846 ft 411 kts
2026-04-22 10:18 51.64032 -3.44094 35495 ft 405 kts
2026-04-22 10:18 51.66818 -3.43543 35170 ft 399 kts
2026-04-22 10:18 51.69551 -3.42992 34772 ft 396 kts
2026-04-22 10:19 51.72271 -3.42444 34484 ft 391 kts
2026-04-22 10:19 51.74966 -3.41906 34108 ft 387 kts
2026-04-22 10:19 51.77620 -3.41375 33746 ft 382 kts
2026-04-22 10:19 51.80239 -3.40850 33382 ft 377 kts
2026-04-22 10:20 51.82832 -3.40331 33045 ft 372 kts
2026-04-22 10:20 51.85377 -3.39819 32697 ft 366 kts
2026-04-22 10:20 51.87894 -3.39312 32380 ft 364 kts
2026-04-22 10:20 51.90424 -3.38804 32056 ft 371 kts
2026-04-22 10:21 51.93030 -3.38295 31726 ft 383 kts
2026-04-22 10:21 51.95705 -3.37974 31497 ft 388 kts 359°
2026-04-22 10:21 52.01196 -3.37625 31502 ft 404 kts 358°
2026-04-22 10:22 52.06960 -3.37238 31347 ft 423 kts 359°
2026-04-22 10:22 52.12950 -3.36778 31321 ft 438 kts 359°
2026-04-22 10:23 52.19117 -3.36327 31321 ft 450 kts 359°
2026-04-22 10:23 52.25453 -3.35891 31344 ft 460 kts 359°
2026-04-22 10:24 52.31821 -3.35442 31182 ft 460 kts 359°
2026-04-22 10:24 52.35028 -3.35212 30178 ft 464 kts 359°
2026-04-22 10:24 52.38247 -3.34981 29207 ft 464 kts 359°
2026-04-22 10:25 52.41482 -3.34750 28272 ft 464 kts
2026-04-22 10:25 52.44714 -3.34520 27256 ft 467 kts 359°
2026-04-22 10:25 52.47976 -3.34281 26229 ft 470 kts 359°
2026-04-22 10:25 52.51240 -3.34031 25486 ft 467 kts
2026-04-22 10:26 52.54470 -3.33775 24725 ft 464 kts
2026-04-22 10:26 52.56604 -3.33606 24252 ft 462 kts 359°
2026-04-22 10:26 52.59797 -3.33354 23465 ft 458 kts
2026-04-22 10:26 52.62962 -3.32848 22656 ft 456 kts
2026-04-22 10:27 52.66014 -3.31518 21992 ft 454 kts 18°
2026-04-22 10:27 52.68946 -3.29648 21292 ft 449 kts 19°
2026-04-22 10:27 52.71850 -3.27829 20587 ft 445 kts 19°
2026-04-22 10:27 52.74746 -3.26072 19894 ft 441 kts 18°
2026-04-22 10:28 52.77616 -3.24367 19220 ft 437 kts 19°
2026-04-22 10:28 52.80468 -3.22676 18570 ft 433 kts 19°
2026-04-22 10:28 52.83289 -3.20998 17860 ft 429 kts 20°
2026-04-22 10:28 52.86097 -3.19319 17568 ft 433 kts 20°
2026-04-22 10:29 52.88934 -3.17773 17286 ft 425 kts 14°
2026-04-22 10:29 52.91828 -3.17010 16719 ft 420 kts
2026-04-22 10:29 52.94751 -3.16864 15916 ft 421 kts
2026-04-22 10:29 52.97691 -3.16725 15064 ft 423 kts
2026-04-22 10:30 53.00609 -3.16527 14747 ft 412 kts
2026-04-22 10:30 53.03370 -3.15880 14541 ft 388 kts 21°
2026-04-22 10:30 53.05645 -3.13860 14419 ft 358 kts 41°
2026-04-22 10:30 53.07401 -3.11136 14277 ft 333 kts 52°
2026-04-22 10:31 53.08668 -3.08091 14140 ft 310 kts 66°
2026-04-22 10:31 53.09540 -3.04932 13878 ft 295 kts 70°
2026-04-22 10:31 53.10318 -3.01796 13416 ft 291 kts 71°
2026-04-22 10:31 53.11069 -2.98694 12915 ft 287 kts 71°
2026-04-22 10:32 53.11813 -2.95617 12404 ft 285 kts 71°
2026-04-22 10:32 53.12551 -2.92586 11919 ft 281 kts 71°
2026-04-22 10:32 53.13285 -2.89589 11453 ft 278 kts 71°
2026-04-22 10:32 53.14016 -2.86614 10965 ft 276 kts 71°
2026-04-22 10:33 53.14738 -2.83676 10516 ft 273 kts 71°
2026-04-22 10:33 53.15446 -2.80808 10333 ft 259 kts 71°
2026-04-22 10:33 53.16098 -2.78173 10145 ft 234 kts 72°
2026-04-22 10:33 53.16707 -2.75703 9465 ft 228 kts 72°
2026-04-22 10:34 53.17304 -2.73265 8668 ft 227 kts 72°
2026-04-22 10:34 53.17899 -2.70839 7857 ft 226 kts 73°
2026-04-22 10:34 53.18486 -2.68435 7121 ft 223 kts 73°
2026-04-22 10:34 53.19068 -2.66068 6426 ft 219 kts 72°
2026-04-22 10:35 53.19639 -2.63736 5684 ft 215 kts 73°
2026-04-22 10:35 53.20203 -2.61430 5152 ft 210 kts 73°
2026-04-22 10:35 53.20724 -2.59314 4901 ft 189 kts 73°
2026-04-22 10:35 53.21217 -2.57288 4298 ft 188 kts 73°
2026-04-22 10:36 53.21707 -2.55283 3713 ft 185 kts 71°
2026-04-22 10:36 53.22385 -2.53584 3680 ft 173 kts 56°
2026-04-22 10:36 53.23133 -2.52048 3445 ft 165 kts 58°
2026-04-22 10:36 53.23841 -2.50537 3216 ft 165 kts 58°
2026-04-22 10:37 53.24552 -2.49042 2996 ft 164 kts 58°
2026-04-22 10:37 53.25954 -2.46121 2575 ft 152 kts 57°
2026-04-22 10:37 53.26607 -2.44758 2336 ft 147 kts 56°
2026-04-22 10:38 53.27241 -2.43440 2142 ft 147 kts 56°
2026-04-22 10:38 53.27892 -2.42092 1937 ft 145 kts 55°
2026-04-22 10:38 53.28531 -2.40759 1732 ft 150 kts 55°
2026-04-22 10:38 53.29161 -2.39440 1514 ft 141 kts 56°
2026-04-22 10:39 53.29763 -2.38192 1316 ft 130 kts 56°
2026-04-22 10:39 53.30332 -2.37018 1158 ft 134 kts 56°
2026-04-22 10:39 53.30901 -2.35841 977 ft 127 kts 55°
2026-04-22 10:39 53.31455 -2.34681 741 ft 129 kts 56°
2026-04-22 10:40 53.32041 -2.33491 614 ft 142 kts 51°
2026-04-22 10:40 53.32674 -2.32199 435 ft 143 kts 56°
2026-04-22 10:40 53.33290 -2.30897 244 ft 142 kts 54°
2026-04-22 10:40 53.33860 -2.29722 252 ft 130 kts 53°
2026-04-22 10:41 53.34516 -2.28455 843 ft 152 kts 51°
2026-04-22 10:41 53.35335 -2.27046 1463 ft 177 kts 49°
2026-04-22 10:41 53.36212 -2.25607 2030 ft 177 kts 47°
2026-04-22 10:41 53.37203 -2.24400 2664 ft 178 kts 28°
2026-04-22 10:42 53.38508 -2.24454 2973 ft 209 kts 342°
2026-04-22 10:42 53.39656 -2.26196 3003 ft 243 kts 300°
2026-04-22 10:42 53.40047 -2.28958 2993 ft 245 kts 274°
2026-04-22 10:42 53.40199 -2.31786 2966 ft 242 kts 275°
2026-04-22 10:43 53.40360 -2.34592 2965 ft 241 kts 275°
2026-04-22 10:43 53.40521 -2.37367 3002 ft 238 kts 275°
2026-04-22 10:43 53.40397 -2.40094 2965 ft 234 kts 242°
2026-04-22 10:43 53.39546 -2.42326 3029 ft 228 kts 229°
2026-04-22 10:44 53.38625 -2.44533 3029 ft 232 kts 230°
2026-04-22 10:44 53.37698 -2.46781 3018 ft 244 kts 230°
2026-04-22 10:44 53.36651 -2.49255 3102 ft 274 kts 230°
2026-04-22 10:44 53.35530 -2.51871 3034 ft 278 kts 230°
2026-04-22 10:45 53.34411 -2.54487 3009 ft 275 kts 230°
2026-04-22 10:45 53.33295 -2.57091 2991 ft 274 kts 229°
2026-04-22 10:45 53.32207 -2.59695 2985 ft 272 kts 230°
2026-04-22 10:45 53.31022 -2.62013 2951 ft 249 kts 206°
2026-04-22 10:46 53.29524 -2.62876 2990 ft 215 kts 179°
2026-04-22 10:46 53.28083 -2.63198 2970 ft 203 kts 180°
2026-04-22 10:46 53.26727 -2.63524 2971 ft 194 kts 180°
2026-04-22 10:46 53.25403 -2.63847 2975 ft 191 kts 180°
2026-04-22 10:47 53.24082 -2.64165 2981 ft 194 kts 178°
2026-04-22 10:47 53.22792 -2.63927 2952 ft 183 kts 144°
2026-04-22 10:47 53.21709 -2.62826 3001 ft 187 kts 144°
2026-04-22 10:47 53.20615 -2.61712 2994 ft 177 kts 135°
2026-04-22 10:48 53.20130 -2.60044 2985 ft 162 kts 86°
2026-04-22 10:48 53.20523 -2.58311 2982 ft 157 kts 69°
2026-04-22 10:48 53.21006 -2.56744 2969 ft 147 kts 65°
2026-04-22 10:48 53.21596 -2.55316 2986 ft 151 kts 60°
2026-04-22 10:49 53.22222 -2.53926 2969 ft 148 kts 59°
2026-04-22 10:49 53.22837 -2.52600 2988 ft 147 kts 58°
2026-04-22 10:49 53.23460 -2.51277 2988 ft 147 kts 58°
2026-04-22 10:49 53.24091 -2.49954 2974 ft 146 kts 58°
2026-04-22 10:50 53.24740 -2.48593 2835 ft 152 kts 57°
2026-04-22 10:50 53.25398 -2.47227 2622 ft 149 kts 57°
2026-04-22 10:50 53.26043 -2.45886 2432 ft 147 kts 57°
2026-04-22 10:50 53.26682 -2.44558 2233 ft 145 kts 56°
2026-04-22 10:51 53.27311 -2.43255 2067 ft 144 kts 55°
2026-04-22 10:51 53.27947 -2.41939 1908 ft 145 kts 55°
2026-04-22 10:51 53.28580 -2.40624 1671 ft 141 kts 54°
2026-04-22 10:51 53.29168 -2.39407 1481 ft 129 kts 56°
2026-04-22 10:52 53.29724 -2.38255 1326 ft 127 kts 57°
2026-04-22 10:52 53.30279 -2.37102 1144 ft 128 kts 55°
2026-04-22 10:52 53.30824 -2.35940 1017 ft 130 kts 54°
2026-04-22 10:52 53.31431 -2.34715 810 ft 140 kts 53°
2026-04-22 10:53 53.32033 -2.33477 603 ft 136 kts 53°
2026-04-22 10:53 53.32648 -2.32296 474 ft 132 kts 55°
2026-04-22 10:53 53.33193 -2.31090 265 ft 129 kts 56°
2026-04-22 10:53 53.33710 -2.30010 239 ft 100 kts 50°
2026-04-22 10:54 53.34057 -2.29291 245 ft 59 kts 51°
2026-04-22 10:54 53.34277 -2.28832 250 ft 46 kts 51°
2026-04-22 10:54 53.34510 -2.28536 256 ft 39 kts 22°
2026-04-22 10:54 53.34679 -2.28427 259 ft 0 kts 21°
2026-04-22 10:55 53.34680 -2.28426 259 ft 1 kts 21°
2026-04-22 10:55 53.34705 -2.28400 259 ft 8 kts 38°
2026-04-22 10:55 53.34757 -2.28308 259 ft 14 kts 51°
2026-04-22 10:55 53.34829 -2.28158 259 ft 19 kts 51°
2026-04-22 10:56 53.34923 -2.27964 259 ft 24 kts 51°
2026-04-22 10:56 53.35039 -2.27726 258 ft 36 kts 52°
2026-04-22 10:56 53.35141 -2.27514 258 ft 12 kts 53°
2026-04-22 10:56 53.35192 -2.27411 257 ft 11 kts 49°
2026-04-22 10:57 53.35243 -2.27303 255 ft 12 kts 51°
2026-04-22 10:57 53.35301 -2.27182 250 ft 14 kts 51°
2026-04-22 10:57 53.35368 -2.27044 246 ft 16 kts 51°
2026-04-22 10:57 53.35441 -2.26893 242 ft 17 kts 51°
2026-04-22 10:58 53.35515 -2.26739 239 ft 17 kts 52°
2026-04-22 10:58 53.35603 -2.26626 239 ft 16 kts
2026-04-22 10:58 53.35716 -2.26652 235 ft 16 kts 349°
2026-04-22 10:58 53.35827 -2.26683 238 ft 16 kts 351°
2026-04-22 10:59 53.35916 -2.26763 233 ft 16 kts 282°
2026-04-22 10:59 53.35911 -2.26802 233 ft 0 kts 243°
2026-04-22 11:00 53.35911 -2.26803 233 ft 0 kts 243°
2026-04-22 11:00 53.35898 -2.26840 236 ft 7 kts 231°
2026-04-22 11:01 53.35855 -2.26930 235 ft 13 kts 236°
2026-04-22 11:01 53.35808 -2.27071 237 ft 14 kts 222°
2026-04-22 11:01 53.35841 -2.27171 239 ft 14 kts 13°
2026-04-22 11:01 53.35893 -2.27114 238 ft 0 kts 46°